Fort Myers, FL

8:45 PM EDT on September 28, 2016 (GMT -0400)
Page

Weather History for KFMY - September, 2011

Change the Weather History Date:

Wednesday, September 28, 2011

  Actual Average Record
Temperature  
Mean Temperature 84 °F 81 °F  
Max Temperature 93 °F 90 °F 95 °F (1980)
Min Temperature 74 °F 73 °F 67 °F (1931)
Degree Days  
Heating Degree Days 0 0  
Month to date heating degree days 0 0  
Since 1 July heating degree days 0 0  
Cooling Degree Days 19 16  
Month to date cooling degree days 511 490  
Year to date cooling degree days 3484 3214  
Growing Degree Days 33 (Base 50)    
Moisture  
Dew Point 73 °F    
Average Humidity 75    
Maximum Humidity 94    
Minimum Humidity 49    
Precipitation  
Precipitation 0.00 in 0.21 in 2.12 in (1929)
Month to date precipitation 9.93 7.91  
Year to date precipitation 54.44 48.98  
Sea Level Pressure  
Sea Level Pressure 29.89 in    
Wind  
Wind Speed 3 mph (NE)    
Max Wind Speed 13 mph    
Max Gust Speed 15 mph    
Visibility 10 miles    
Events      
T = Trace of Precipitation, MM = Missing Value Source: NWS Daily Summary

Daily Weather History Graph

Daily Weather History Graph

Search for Another Location

Airport or City:

Trip Planner

Search our weather history database for the weather conditions in past years. The results will help you decide how hot, cold, wet, or windy it might be!

Date:

Astronomy

Sep. 28, 2011 Rise Set
Actual Time 7:18 AM EDT 7:17 PM EDT
Civil Twilight 6:55 AM EDT 7:40 PM EDT
Nautical Twilight 6:28 AM EDT 8:07 PM EDT
Astronomical Twilight 6:01 AM EDT 8:34 PM EDT
Moon 8:31 AM EDT (9/28) 8:03 PM EDT (9/28)
Length of Visible Light 12h 45m
Length of Day
11h 58m
New Moon, 2% of the Moon is Illuminated
Sep 28
New Moon
Oct 3
First Quarter
Oct 11
Full
Oct 19
Last Quarter
Oct 26
New

Hourly Weather History & Observations

Time (EDT) Temp. Heat Index Dew Point Humidity Pressure Visibility Wind Dir Wind Speed Gust Speed Precip Events Conditions
12:53 AM 77.0 °F - 73.9 °F 90% 29.91 in 10.0 mi SE 4.6 mph - N/A   Clear
1:53 AM 77.0 °F - 73.0 °F 88% 29.91 in 10.0 mi Calm Calm - N/A   Clear
2:53 AM 75.9 °F - 73.0 °F 91% 29.89 in 10.0 mi ENE 3.5 mph - N/A   Clear
3:53 AM 75.9 °F - 73.0 °F 91% 29.88 in 10.0 mi Calm Calm - N/A   Clear
5:53 AM 75.9 °F - 73.0 °F 91% 29.88 in 10.0 mi Calm Calm - N/A   Clear
6:53 AM 75.0 °F - 73.0 °F 94% 29.90 in 10.0 mi Calm Calm - N/A   Clear
7:53 AM 75.9 °F - 73.9 °F 94% 29.92 in 10.0 mi ENE 3.5 mph - N/A   Clear
8:25 AM 77.0 °F - 73.4 °F 89% 29.92 in 10.0 mi ENE 4.6 mph - N/A   Scattered Clouds
8:53 AM 79.0 °F - 73.9 °F 84% 29.94 in 10.0 mi ENE 3.5 mph - N/A   Partly Cloudy
10:53 AM 84.0 °F 90.2 °F 73.0 °F 69% 29.94 in 10.0 mi Variable 5.8 mph - N/A   Clear
11:53 AM 84.9 °F 91.4 °F 73.0 °F 67% 29.93 in 10.0 mi Variable 3.5 mph - N/A   Clear
12:53 PM 87.1 °F 93.6 °F 72.0 °F 61% 29.91 in 10.0 mi Calm Calm - N/A   Scattered Clouds
1:53 PM 90.0 °F 96.4 °F 71.1 °F 54% 29.90 in 10.0 mi Calm Calm - N/A   Partly Cloudy
2:53 PM 91.0 °F 96.6 °F 70.0 °F 50% 29.88 in 10.0 mi Calm Calm - N/A   Partly Cloudy
3:53 PM 91.0 °F 96.6 °F 70.0 °F 50% 29.86 in 10.0 mi Variable 4.6 mph - N/A   Mostly Cloudy
4:53 PM 90.0 °F 96.4 °F 71.1 °F 54% 29.85 in 10.0 mi North 6.9 mph - N/A   Mostly Cloudy
5:53 PM 88.0 °F 96.5 °F 73.9 °F 63% 29.84 in 10.0 mi WNW 5.8 mph - N/A   Partly Cloudy
6:53 PM 86.0 °F 95.1 °F 75.0 °F 70% 29.83 in 10.0 mi NNW 5.8 mph - N/A   Clear
7:53 PM 84.9 °F 93.3 °F 75.0 °F 72% 29.84 in 10.0 mi NW 5.8 mph - N/A   Mostly Cloudy
8:53 PM 84.0 °F 91.9 °F 75.0 °F 74% 29.86 in 10.0 mi NNE 5.8 mph - N/A   Mostly Cloudy
9:53 PM 81.0 °F 86.2 °F 73.9 °F 79% 29.88 in 10.0 mi South 3.5 mph - N/A   Partly Cloudy
10:53 PM 80.1 °F 84.5 °F 73.9 °F 81% 29.90 in 10.0 mi Calm Calm - N/A   Clear
11:53 PM 80.1 °F 84.2 °F 73.0 °F 79% 29.91 in 10.0 mi ENE 3.5 mph - N/A   Partly Cloudy